Weather History for KGAD - October, 2011

Change the Weather History Date:

Saturday, October 15, 2011

  Actual Average Record
Temperature  
Mean Temperature 62 °F -  
Max Temperature 77 °F 71 °F 89 °F (1947)
Min Temperature 46 °F 47 °F 33 °F (1946)
Degree Days  
Heating Degree Days 4    
Growing Degree Days 12 (Base 50)    
Moisture  
Dew Point 44 °F    
Average Humidity 67    
Maximum Humidity 93    
Minimum Humidity 28    
Precipitation  
Precipitation 0.00 in - - ()
Sea Level Pressure  
Sea Level Pressure 30.08 in    
Wind  
Wind Speed 3 mph (WNW)    
Max Wind Speed 13 mph    
Max Gust Speed 17 mph    
Visibility 10 miles    
Events      
Averages and records for this station are not official NWS values.
T = Trace of Precipitation, MM = Missing Value Source: NWS Daily Summary

Daily Weather History Graph

Daily Weather History Graph

Search for Another Location

Airport or City:

Trip Planner

Search our weather history database for the weather conditions in past years. The results will help you decide how hot, cold, wet, or windy it might be!

Date:

Astronomy

Oct. 15, 2011 Rise Set
Actual Time 6:49 AM CDT 6:10 PM CDT
Civil Twilight 6:24 AM CDT 6:35 PM CDT
Nautical Twilight 5:54 AM CDT 7:04 PM CDT
Astronomical Twilight 5:26 AM CDT 7:33 PM CDT
Moon 8:18 PM CDT (10/15) 10:01 AM CDT (10/15)
Length of Visible Light 12h 11m
Length of Day
11h 21m
Waning Gibbous, 89% of the Moon is Illuminated
Oct 15
Waning Gibbous
Oct 19
Last Quarter
Oct 26
New
Nov 2
First Quarter
Nov 10
Full

Hourly Weather History & Observations

Time (CDT) Temp. Dew Point Humidity Pressure Visibility Wind Dir Wind Speed Gust Speed Precip Events Conditions
12:15 AM 51.8 °F 46.4 °F 82% 30.00 in 10.0 mi WSW 4.6 mph - N/A   Clear
12:35 AM 51.8 °F 46.4 °F 82% 30.00 in 10.0 mi WSW 4.6 mph - N/A   Clear
12:55 AM 51.8 °F 46.4 °F 82% 30.01 in 10.0 mi WSW 3.5 mph - N/A   Clear
1:15 AM 51.8 °F 46.4 °F 82% 30.01 in 10.0 mi WSW 5.8 mph - N/A   Clear
1:35 AM 51.8 °F 44.6 °F 76% 30.01 in 10.0 mi WSW 3.5 mph - N/A   Clear
1:55 AM 50.0 °F 44.6 °F 82% 30.01 in 10.0 mi Calm Calm - N/A   Clear
2:15 AM 48.2 °F 44.6 °F 87% 30.01 in 10.0 mi Calm Calm - N/A   Clear
2:35 AM 48.2 °F 44.6 °F 87% 30.02 in 10.0 mi Calm Calm - N/A   Clear
2:55 AM 46.4 °F 44.6 °F 93% 30.02 in 10.0 mi Calm Calm - N/A   Clear
3:15 AM 46.4 °F 44.6 °F 93% 30.02 in 10.0 mi Calm Calm - N/A   Clear
3:35 AM 46.4 °F 42.8 °F 87% 30.03 in 10.0 mi Calm Calm - N/A   Clear
3:56 AM 46.4 °F 42.8 °F 87% 30.03 in 10.0 mi Calm Calm - N/A   Clear
4:15 AM 46.4 °F 44.6 °F 93% 30.03 in 10.0 mi Calm Calm - N/A   Clear
4:36 AM 46.4 °F 44.6 °F 93% 30.04 in 10.0 mi Calm Calm - N/A   Clear
4:55 AM 46.4 °F 42.8 °F 87% 30.04 in 10.0 mi Calm Calm - N/A   Clear
5:15 AM 46.4 °F 42.8 °F 87% 30.05 in 10.0 mi Calm Calm - N/A   Clear
5:35 AM 46.4 °F 42.8 °F 87% 30.05 in 10.0 mi Calm Calm - N/A   Clear
5:55 AM 46.4 °F 42.8 °F 87% 30.05 in 10.0 mi Calm Calm - N/A   Clear
6:15 AM 46.4 °F 42.8 °F 87% 30.06 in 10.0 mi Calm Calm - N/A   Clear
6:35 AM 46.4 °F 42.8 °F 87% 30.07 in 10.0 mi Calm Calm - N/A   Clear
7:15 AM 46.4 °F 42.8 °F 87% 30.07 in 10.0 mi Calm Calm - N/A   Clear
8:15 AM 53.6 °F 48.2 °F 82% 30.09 in 10.0 mi Calm Calm - N/A   Clear
8:35 AM 55.4 °F 50.0 °F 82% 30.10 in 10.0 mi Calm Calm - N/A   Clear
8:55 AM 59.0 °F 48.2 °F 67% 30.10 in 10.0 mi Calm Calm - N/A   Clear
9:15 AM 60.8 °F 50.0 °F 68% 30.11 in 10.0 mi Calm Calm - N/A   Clear
9:55 AM 64.4 °F 46.4 °F 52% 30.11 in 10.0 mi Calm Calm - N/A   Clear
10:15 AM 66.2 °F 46.4 °F 49% 30.12 in 10.0 mi Calm Calm - N/A   Clear
10:55 AM 69.8 °F 44.6 °F 40% 30.12 in 10.0 mi Calm Calm - N/A   Clear
11:35 AM 71.6 °F 42.8 °F 35% 30.11 in 10.0 mi NW 5.8 mph - N/A   Clear
11:55 AM 73.4 °F 44.6 °F 36% 30.11 in 10.0 mi NNW 6.9 mph - N/A   Clear
12:35 PM 73.4 °F 44.6 °F 36% 30.10 in 10.0 mi NW 6.9 mph - N/A   Clear
12:55 PM 73.4 °F 42.8 °F 33% 30.09 in 10.0 mi WNW 9.2 mph - N/A   Clear
1:35 PM 75.2 °F 42.8 °F 31% 30.08 in 10.0 mi West 12.7 mph 17.3 mph N/A   Clear
1:55 PM 75.2 °F 41.0 °F 29% 30.08 in 10.0 mi NW 10.4 mph 17.3 mph N/A   Clear
2:15 PM 77.0 °F 42.8 °F 29% 30.08 in 10.0 mi West 10.4 mph - N/A   Clear
2:55 PM 77.0 °F 41.0 °F 28% 30.07 in 10.0 mi NW 9.2 mph - N/A   Clear
3:15 PM 75.2 °F 41.0 °F 29% 30.07 in 10.0 mi NW 9.2 mph 16.1 mph N/A   Clear
3:35 PM 75.2 °F 41.0 °F 29% 30.07 in 10.0 mi NW 10.4 mph - N/A   Clear
3:55 PM 75.2 °F 41.0 °F 29% 30.07 in 10.0 mi NW 5.8 mph - N/A   Clear
4:15 PM 75.2 °F 41.0 °F 29% 30.07 in 10.0 mi NW 6.9 mph - N/A   Clear
5:15 PM 73.4 °F 39.2 °F 29% 30.08 in 10.0 mi WNW 6.9 mph - N/A   Clear
5:35 PM 71.6 °F 41.0 °F 33% 30.08 in 10.0 mi WNW 6.9 mph - N/A   Clear
5:55 PM 69.8 °F 41.0 °F 35% 30.09 in 10.0 mi WNW 4.6 mph - N/A   Clear
6:15 PM 64.4 °F 44.6 °F 49% 30.09 in 10.0 mi Calm Calm - N/A   Clear
6:35 PM 60.8 °F 44.6 °F 55% 30.09 in 10.0 mi Calm Calm - N/A   Clear
6:55 PM 57.2 °F 46.4 °F 67% 30.10 in 10.0 mi Calm Calm - N/A   Clear
7:35 PM 55.4 °F 44.6 °F 67% 30.11 in 10.0 mi Calm Calm - N/A   Clear
7:55 PM 53.6 °F 44.6 °F 72% 30.11 in 10.0 mi Calm Calm - N/A   Clear
8:15 PM 53.6 °F 44.6 °F 72% 30.12 in 10.0 mi Calm Calm - N/A   Clear
8:35 PM 53.6 °F 44.6 °F 72% 30.12 in 10.0 mi Calm Calm - N/A   Clear
8:55 PM 51.8 °F 44.6 °F 76% 30.13 in 10.0 mi Calm Calm - N/A   Clear
9:15 PM 50.0 °F 44.6 °F 82% 30.13 in 10.0 mi Calm Calm - N/A   Clear
9:35 PM 51.8 °F 44.6 °F 76% 30.13 in 10.0 mi Calm Calm - N/A   Clear
9:55 PM 48.2 °F 44.6 °F 87% 30.14 in 10.0 mi Calm Calm - N/A   Clear
10:15 PM 48.2 °F 42.8 °F 82% 30.14 in 10.0 mi Calm Calm - N/A   Clear
10:35 PM 48.2 °F 44.6 °F 87% 30.15 in 10.0 mi Calm Calm - N/A   Clear
10:55 PM 46.4 °F 42.8 °F 87% 30.15 in 10.0 mi Calm Calm - N/A   Clear
11:15 PM 48.2 °F 42.8 °F 82% 30.15 in 10.0 mi Calm Calm - N/A   Clear
11:35 PM 46.4 °F 42.8 °F 87% 30.15 in 10.0 mi Calm Calm - N/A   Clear
11:55 PM 46.4 °F 42.8 °F 87% 30.15 in 10.0 mi Calm Calm - N/A   Clear